SCP
-0 -0 -0 -0 -0 -0 -0 0 0 0 0 0 -0 0 0 0 -0 0 0 0 0 0 0 -0 -0 -0 -0 0 0 0 1 1 1 2 1 2 3 3 2 1 0 0 0 0
-0 -0 0 -0 -0 0 0 0 0 -0 0 0 -0 -0 0 0 -0 0 0 0 0 0 0 0 -0 0 0 -0 0 0 1 1 2 2 2 3 3 2 1 1 0 0 0 0
-0 0 -0 0 -0 0 0 0 0 -0 0 0 0 0 0 0 0 0 0 0 0 0 0 0 0 0 0 -0 -0 -0 1 0 3 3 3 4 2 1 1 0 0 0 0 0
0 0 0 0 0 0 0 0 0 0 0 0 0 0 0 0 0 0 0 0 0 0 0 0 0 1 0 1 0 -0 -1 -1 3 3 3 1 1 0 0 0 0 0 0 0
0 0 0 0 0 0 0 -0 0 0 0 0 0 0 0 0 0 0 0 0 0 0 0 0 0 1 1 1 2 1 -1 2 4 3 3 1 0 0 0 0 0 0 0 0
-0 0 0 0 0 0 0 0 0 0 0 0 0 0 0 0 0 -0 0 0 0 0 0 0 0 1 1 3 2 1 2 5 4 3 2 0 0 0 0 0 0 0 0 0
0 0 0 -0 0 0 -0 0 0 0 0 0 0 0 0 0 0 0 0 0 0 0 0 0 0 1 8 9 -2 1 3 5 4 2 1 0 0 0 0 0 0 0 0 0
-0 0 -0 0 0 -0 0 0 0 0 0 0 0 0 0 0 0 0 0 0 0 0 0 0 0 3 5 -0 0 2 3 3 2 1 1 1 0 0 0 0 0 0 0 0
0 -0 -0 0 0 0 -0 0 0 0 0 -0 -0 0 0 -0 0 0 0 0 0 0 0 0 0 3 1 0 0 0 3 3 2 2 1 1 0 0 0 0 0 0 0 1
0 0 0 0 0 0 0 -0 0 0 0 0 0 0 -0 0 0 0 0 0 0 0 0 0 0 1 2 0 1 3 4 2 2 1 1 1 0 0 0 0 0 0 2 0
0 0 0 0 0 0 0 0 0 0 0 0 0 0 0 0 0 0 0 0 0 0 0 0 0 1 2 2 2 2 2 1 2 1 1 0 0 0 0 1 0 1 2 1
0 0 0 0 0 0 0 0 0 0 0 0 0 0 0 -0 0 0 0 0 0 0 0 0 0 1 1 1 1 1 1 1 2 1 1 0 0 0 1 1 0 2 1 0
0 0 0 0 0 0 -0 0 0 0 0 0 0 0 0 0 0 0 0 0 0 0 0 0 1 1 3 3 2 2 1 1 1 1 1 1 1 1 1 1 1 2 1 0
0 0 0 0 0 0 0 0 0 0 0 0 0 0 0 0 0 0 0 0 0 0 0 0 0 1 2 3 3 2 2 1 1 1 2 2 2 2 1 1 1 1 0 0
0 0 0 0 0 0 0 0 -0 0 0 0 0 0 0 0 0 0 0 0 0 0 0 0 0 0 2 4 4 3 2 2 1 2 3 4 3 1 1 1 1 0 0 0
1 0 0 0 0 0 0 0 0 0 0 0 0 0 0 0 0 0 0 0 0 0 0 0 0 0 2 3 4 4 3 3 3 3 3 4 3 1 1 0 0 0 0 0
0 0 0 0 0 0 0 0 0 0 0 0 0 0 0 0 0 0 0 0 0 0 0 0 1 1 3 2 2 4 6 6 5 5 4 4 3 1 0 0 0 0 0 0
0 0 0 0 0 0 0 0 0 0 0 0 0 0 0 0 0 0 0 0 0 0 1 1 1 2 1 1 1 3 5 7 8 7 4 2 2 0 0 0 0 0 0 0
0 0 0 0 0 0 -0 0 0 0 0 0 0 0 0 0 0 0 0 0 0 2 3 2 3 3 3 3 3 2 3 8 8 7 3 2 1 0 0 0 0 0 0 0
0 0 0 0 0 0 -0 0 0 0 0 0 0 0 0 0 0 0 1 2 3 4 6 5 3 2 4 3 5 3 3 7 7 4 3 1 0 0 0 0 0 0 0 0
0 0 0 0 0 0 0 0 0 0 0 0 0 0 1 0 1 2 1 2 3 4 4 2 2 2 4 3 3 3 4 5 4 2 1 0 0 0 0 0 0 0 0 0
0 0 0 0 0 0 0 0 0 0 0 0 0 0 0 1 2 2 2 1 1 1 1 1 1 2 3 2 3 2 3 4 4 1 0 0 0 0 0 0 0 0 0 0
0 0 0 0 0 0 0 0 -0 0 0 0 0 0 0 1 2 1 2 1 1 2 2 2 2 4 2 1 2 2 3 3 2 0 0 0 0 0 0 0 0 0 0 0
0 0 0 0 0 0 0 0 0 0 -0 0 0 0 0 -0 1 2 2 1 1 2 1 1 1 1 1 1 1 3 3 2 0 0 0 0 0 0 0 0 0 0 0 0
0 0 0 0 0 0 0 0 0 0 0 0 0 0 0 0 -0 0 1 0 0 1 2 1 1 1 1 0 1 1 0 0 0 0 0 0 0 0 0 0 0 0 0 0
0 0 0 0 0 0 0 0 0 0 -0 0 -0 -0 0 0 0 0 0 0 0 0 0 0 0 0 0 0 0 0 0 0 0 0 0 0 0 0 0 0 0 0 0 0
Wind_Speed_500mb
34 24 28 33 35 40 42 28 34 35 32 20 57 30 32 55 68 48 46 55 59 63 63 61 58 62 60 58 57 60 56 52 50 48 35 38 29 34 32 27 19 22 22 23
30 31 35 35 33 32 28 28 37 33 38 28 57 29 33 41 56 36 46 51 59 61 62 71 71 69 74 72 69 63 62 61 55 42 36 42 35 34 29 28 22 25 27 25
34 36 37 29 39 18 29 30 39 43 26 32 27 27 25 32 39 53 46 50 58 66 68 70 78 78 69 79 78 74 68 66 64 48 52 49 41 39 33 29 26 27 28 28
33 40 33 24 30 28 31 34 41 44 29 24 29 26 29 30 33 30 37 47 44 58 72 74 81 87 87 77 78 76 71 72 68 66 63 56 43 34 45 29 31 30 36 34
34 38 24 34 31 34 31 41 36 36 39 33 32 22 23 25 31 35 36 47 41 50 65 78 85 92 95 84 73 69 72 71 77 65 65 51 42 30 40 40 33 36 40 35
34 43 30 29 33 30 33 38 40 36 26 29 38 31 32 29 29 35 39 36 45 47 48 68 82 89 88 87 66 77 69 71 71 66 66 49 38 40 48 47 42 42 44 38
37 39 34 40 26 31 38 25 21 27 25 27 33 36 30 31 31 31 31 28 34 40 49 53 67 80 83 87 89 79 75 74 72 68 65 56 51 37 46 50 48 45 42 43
30 29 46 37 38 35 39 22 22 29 26 29 31 40 36 42 51 54 39 8 15 19 18 18 7 41 57 39 10 75 79 72 65 74 75 74 46 47 44 53 49 41 41 36
30 43 36 19 31 32 36 30 31 32 35 31 33 41 37 46 19 13 7 8 11 17 27 29 18 33 70 74 88 93 87 74 66 84 82 73 48 51 52 57 46 40 41 43
27 31 37 37 16 34 35 32 29 24 33 35 32 38 25 13 28 15 7 14 18 22 24 25 14 26 49 51 76 97 81 70 82 80 72 58 49 61 58 58 51 51 47 50
26 21 30 37 30 24 25 31 29 25 23 25 26 24 11 15 10 10 18 25 29 27 29 27 15 46 62 70 69 67 70 72 70 66 59 51 52 66 62 63 55 55 54 53
25 9 20 39 40 37 32 32 28 20 25 25 26 28 19 0 19 20 24 24 27 24 14 12 27 48 68 72 61 56 48 64 57 53 50 48 48 55 68 68 62 64 64 62
16 14 21 31 31 35 38 35 33 27 17 30 26 25 20 18 23 21 17 26 34 30 30 32 33 37 44 41 42 45 49 49 61 57 56 54 54 52 62 69 68 73 68 66
4 14 24 27 33 28 28 35 38 34 25 25 29 35 34 37 26 32 30 35 34 33 45 49 45 41 42 46 52 49 51 55 63 70 61 58 59 61 61 70 71 74 71 67
12 26 35 42 46 49 53 52 48 33 38 39 37 43 38 38 28 32 27 21 35 42 36 29 37 50 61 59 57 59 61 54 63 69 62 66 62 59 63 71 68 74 71 74
24 32 36 51 48 49 56 63 57 53 50 43 39 40 30 36 44 48 43 35 40 41 21 27 32 28 39 64 69 69 68 69 68 73 74 67 63 64 69 75 75 74 81 65
27 20 26 38 37 42 59 53 56 53 52 48 42 37 35 36 29 40 47 43 48 40 37 36 33 18 7 6 23 56 63 62 66 65 73 70 66 70 71 74 77 81 72 63
33 30 23 29 33 48 41 37 44 50 47 46 48 43 37 41 53 54 51 52 31 34 32 28 15 10 9 5 12 12 51 58 63 59 67 67 74 74 75 81 84 84 72 61
34 29 24 27 34 51 69 44 38 38 43 43 45 41 50 49 47 41 42 49 25 11 11 8 6 4 12 11 13 22 29 43 58 56 63 69 75 80 81 83 86 80 69 66
41 40 29 29 38 54 58 40 54 48 43 39 48 43 35 36 26 22 4 8 15 20 21 19 14 9 7 9 18 25 30 35 52 55 55 65 77 78 82 81 83 78 64 58
29 17 31 31 37 43 44 48 62 27 20 71 96 57 38 32 28 23 22 22 22 24 21 13 11 10 8 12 18 21 25 31 36 42 55 62 73 75 80 81 79 69 62 55
31 30 29 20 22 27 21 25 13 20 58 58 84 98 58 26 22 20 22 16 17 16 13 13 8 10 10 13 17 20 25 31 37 44 54 61 67 74 78 75 66 55 60 60
20 19 11 15 22 41 63 55 19 43 51 63 68 112 107 49 22 21 23 15 12 12 9 12 9 11 11 10 15 21 27 37 42 51 62 66 69 74 74 71 62 65 70 69
39 50 28 27 22 47 54 43 44 38 37 60 66 86 80 132 27 18 20 13 9 9 6 6 5 10 13 16 15 20 43 54 54 61 64 68 71 72 71 67 66 75 71 56
35 44 41 45 46 58 48 33 39 43 47 38 46 54 63 73 80 21 19 20 9 7 7 5 8 12 15 25 20 29 43 50 48 58 64 73 73 75 74 69 73 68 53 52
47 41 28 33 51 52 59 64 58 48 34 40 35 39 48 48 96 59 20 18 14 15 14 14 17 16 21 32 26 34 38 36 42 57 67 72 76 71 67 72 66 49 47 43
Wind_Direction_500mb
222 238 235 234 230 252 266 302 243 261 138 72 302 217 172 155 228 197 207 190 193 194 195 194 195 195 195 198 203 206 201 198 210 201 186 204 202 205 223 214 229 194 196 183
243 224 249 249 251 245 286 290 278 279 165 165 213 241 182 187 214 210 210 204 191 195 199 191 194 199 198 201 203 211 207 203 209 195 192 215 219 219 218 230 219 198 199 172
233 244 219 241 260 241 257 269 274 274 186 191 259 224 243 270 256 199 213 234 201 194 196 198 194 197 201 201 200 208 209 206 208 196 201 203 208 218 229 223 209 197 195 174
252 247 271 274 251 263 252 247 257 276 274 219 228 255 255 245 265 275 266 215 212 204 199 198 200 196 201 203 200 206 207 205 208 199 207 214 216 231 229 221 201 197 189 196
255 244 255 264 252 268 260 274 259 250 273 284 249 228 250 232 230 247 237 246 237 222 207 199 203 205 200 200 196 203 200 205 213 212 216 203 205 245 221 198 194 193 197 196
255 272 266 245 262 242 270 266 269 277 262 254 260 266 264 257 230 235 256 232 230 224 237 217 210 208 196 189 190 203 200 205 216 220 214 203 207 232 201 190 191 199 200 195
254 247 245 263 261 256 244 251 255 247 248 256 255 249 250 260 265 257 256 251 233 231 225 246 222 207 181 181 194 201 203 209 223 222 207 201 224 237 206 201 201 201 198 196
273 245 220 217 220 253 231 225 246 255 249 260 255 252 250 240 244 243 256 325 317 321 309 282 25 147 143 91 240 242 213 209 216 207 201 213 220 220 211 207 206 205 200 202
265 277 287 255 199 217 256 223 237 256 272 279 285 285 251 228 203 211 198 270 274 278 280 278 270 185 198 200 213 232 212 212 214 205 207 217 218 214 214 212 209 198 187 201
237 264 277 289 237 228 221 255 241 224 243 260 274 281 286 243 201 185 204 233 224 229 254 263 310 190 206 205 188 202 215 215 206 206 217 223 211 211 217 214 204 183 191 205
257 251 260 280 271 246 247 240 250 277 273 256 248 265 316 33 114 207 204 214 214 209 228 237 213 165 176 184 195 206 206 203 206 208 219 225 226 216 215 212 199 190 195 202
275 282 250 258 267 274 231 265 249 235 261 271 281 282 308 341 311 177 209 225 206 215 227 285 176 162 170 175 185 200 210 198 205 215 225 235 233 223 213 212 204 191 200 204
347 292 260 254 266 270 269 239 235 246 247 249 266 273 276 337 308 266 248 266 202 198 205 218 187 195 187 209 207 203 223 228 210 210 230 233 231 230 211 205 203 197 204 205
356 267 275 263 254 274 269 260 238 240 249 258 256 278 289 292 278 273 204 237 259 228 215 207 206 199 203 201 210 211 217 217 218 212 219 226 225 224 217 203 199 203 206 202
247 264 272 269 272 282 284 280 272 255 250 239 247 248 249 255 268 277 235 245 245 274 247 249 218 210 199 200 204 207 220 226 211 216 218 220 230 226 216 202 201 203 205 205
327 263 246 262 268 270 271 269 270 270 271 273 253 255 259 255 274 281 280 218 204 237 248 247 251 262 212 200 204 207 211 216 212 214 219 224 227 219 211 205 205 202 203 208
302 310 306 278 281 271 258 258 265 271 271 269 264 270 267 270 252 247 258 264 264 230 225 245 258 265 151 163 201 209 208 207 210 210 209 213 212 208 208 207 202 200 202 214
276 281 282 283 285 264 274 273 270 262 267 272 275 278 275 278 279 278 280 274 271 241 244 228 220 186 216 239 286 275 210 205 203 205 207 212 210 208 205 205 205 204 211 215
257 257 266 262 263 275 267 271 275 278 281 281 280 280 279 278 286 272 278 277 272 179 162 93 109 172 210 227 253 260 235 205 199 201 209 212 208 210 209 207 206 210 210 201
230 228 241 242 248 256 268 265 264 280 280 315 296 280 281 277 271 271 2 34 86 96 112 112 121 126 225 196 213 228 226 205 201 200 198 206 214 215 213 210 209 210 200 195
281 273 230 257 259 258 283 304 294 279 311 330 343 308 290 241 256 146 120 96 92 100 104 104 113 135 171 202 198 196 205 204 207 197 200 210 214 213 214 210 208 207 190 183
270 268 269 235 225 271 342 348 347 335 322 337 339 339 304 280 120 133 129 133 130 129 114 119 133 158 173 186 202 188 198 202 200 206 211 210 215 209 207 207 202 190 177 167
286 320 301 285 291 314 313 316 302 299 298 330 337 338 339 259 175 158 152 154 149 130 128 146 152 188 187 196 199 185 192 205 204 209 207 209 212 210 209 207 187 176 166 167
289 297 288 306 309 322 322 353 10 352 326 298 315 332 339 336 182 137 130 138 136 99 162 185 188 212 232 217 203 207 207 208 211 208 212 213 209 202 199 194 186 173 168 174
286 301 293 289 290 297 297 305 324 332 340 320 284 301 330 323 330 44 65 70 59 1 312 250 250 250 230 244 222 215 223 219 219 213 208 201 199 196 185 179 172 167 173 182
270 272 270 276 297 303 299 302 297 286 297 308 310 297 286 325 316 348 8 11 351 314 265 240 242 237 229 244 223 226 226 226 215 206 199 202 195 183 172 163 162 175 179 187
Wind_Speed_850mb
34 24 28 33 35 40 42 28 34 35 32 20 57 30 32 55 68 48 46 55 59 63 63 61 58 62 60 58 57 60 56 52 50 48 35 38 29 34 32 27 19 22 22 23
30 31 35 35 33 32 28 28 37 33 38 28 57 29 33 41 56 36 46 51 59 61 62 71 71 69 74 72 69 63 62 61 55 42 36 42 35 34 29 28 22 25 27 25
34 36 37 29 39 18 29 30 39 43 26 32 27 27 25 32 39 53 46 50 58 66 68 70 78 78 69 79 78 74 68 66 64 48 52 49 41 39 33 29 26 27 28 28
33 40 33 24 30 28 31 34 41 44 29 24 29 26 29 30 33 30 37 47 44 58 72 74 81 87 87 77 78 76 71 72 68 66 63 56 43 34 45 29 31 30 36 34
34 38 24 34 31 34 31 41 36 36 39 33 32 22 23 25 31 35 36 47 41 50 65 78 85 92 95 84 73 69 72 71 77 65 65 51 42 30 40 40 33 36 40 35
34 43 30 29 33 30 33 38 40 36 26 29 38 31 32 29 29 35 39 36 45 47 48 68 82 89 88 87 66 77 69 71 71 66 66 49 38 40 48 47 42 42 44 38
37 39 34 40 26 31 38 25 21 27 25 27 33 36 30 31 31 31 31 28 34 40 49 53 67 80 83 87 89 79 75 74 72 68 65 56 51 37 46 50 48 45 42 43
30 29 46 37 38 35 39 22 22 29 26 29 31 40 36 42 51 54 39 8 15 19 18 18 7 41 57 39 10 75 79 72 65 74 75 74 46 47 44 53 49 41 41 36
30 43 36 19 31 32 36 30 31 32 35 31 33 41 37 46 19 13 7 8 11 17 27 29 18 33 70 74 88 93 87 74 66 84 82 73 48 51 52 57 46 40 41 43
27 31 37 37 16 34 35 32 29 24 33 35 32 38 25 13 28 15 7 14 18 22 24 25 14 26 49 51 76 97 81 70 82 80 72 58 49 61 58 58 51 51 47 50
26 21 30 37 30 24 25 31 29 25 23 25 26 24 11 15 10 10 18 25 29 27 29 27 15 46 62 70 69 67 70 72 70 66 59 51 52 66 62 63 55 55 54 53
25 9 20 39 40 37 32 32 28 20 25 25 26 28 19 0 19 20 24 24 27 24 14 12 27 48 68 72 61 56 48 64 57 53 50 48 48 55 68 68 62 64 64 62
16 14 21 31 31 35 38 35 33 27 17 30 26 25 20 18 23 21 17 26 34 30 30 32 33 37 44 41 42 45 49 49 61 57 56 54 54 52 62 69 68 73 68 66
4 14 24 27 33 28 28 35 38 34 25 25 29 35 34 37 26 32 30 35 34 33 45 49 45 41 42 46 52 49 51 55 63 70 61 58 59 61 61 70 71 74 71 67
12 26 35 42 46 49 53 52 48 33 38 39 37 43 38 38 28 32 27 21 35 42 36 29 37 50 61 59 57 59 61 54 63 69 62 66 62 59 63 71 68 74 71 74
24 32 36 51 48 49 56 63 57 53 50 43 39 40 30 36 44 48 43 35 40 41 21 27 32 28 39 64 69 69 68 69 68 73 74 67 63 64 69 75 75 74 81 65
27 20 26 38 37 42 59 53 56 53 52 48 42 37 35 36 29 40 47 43 48 40 37 36 33 18 7 6 23 56 63 62 66 65 73 70 66 70 71 74 77 81 72 63
33 30 23 29 33 48 41 37 44 50 47 46 48 43 37 41 53 54 51 52 31 34 32 28 15 10 9 5 12 12 51 58 63 59 67 67 74 74 75 81 84 84 72 61
34 29 24 27 34 51 69 44 38 38 43 43 45 41 50 49 47 41 42 49 25 11 11 8 6 4 12 11 13 22 29 43 58 56 63 69 75 80 81 83 86 80 69 66
41 40 29 29 38 54 58 40 54 48 43 39 48 43 35 36 26 22 4 8 15 20 21 19 14 9 7 9 18 25 30 35 52 55 55 65 77 78 82 81 83 78 64 58
29 17 31 31 37 43 44 48 62 27 20 71 96 57 38 32 28 23 22 22 22 24 21 13 11 10 8 12 18 21 25 31 36 42 55 62 73 75 80 81 79 69 62 55
31 30 29 20 22 27 21 25 13 20 58 58 84 98 58 26 22 20 22 16 17 16 13 13 8 10 10 13 17 20 25 31 37 44 54 61 67 74 78 75 66 55 60 60
20 19 11 15 22 41 63 55 19 43 51 63 68 112 107 49 22 21 23 15 12 12 9 12 9 11 11 10 15 21 27 37 42 51 62 66 69 74 74 71 62 65 70 69
39 50 28 27 22 47 54 43 44 38 37 60 66 86 80 132 27 18 20 13 9 9 6 6 5 10 13 16 15 20 43 54 54 61 64 68 71 72 71 67 66 75 71 56
35 44 41 45 46 58 48 33 39 43 47 38 46 54 63 73 80 21 19 20 9 7 7 5 8 12 15 25 20 29 43 50 48 58 64 73 73 75 74 69 73 68 53 52
47 41 28 33 51 52 59 64 58 48 34 40 35 39 48 48 96 59 20 18 14 15 14 14 17 16 21 32 26 34 38 36 42 57 67 72 76 71 67 72 66 49 47 43
Wind_Direction_850mb
222 238 235 234 230 252 266 302 243 261 138 72 302 217 172 155 228 197 207 190 193 194 195 194 195 195 195 198 203 206 201 198 210 201 186 204 202 205 223 214 229 194 196 183
243 224 249 249 251 245 286 290 278 279 165 165 213 241 182 187 214 210 210 204 191 195 199 191 194 199 198 201 203 211 207 203 209 195 192 215 219 219 218 230 219 198 199 172
233 244 219 241 260 241 257 269 274 274 186 191 259 224 243 270 256 199 213 234 201 194 196 198 194 197 201 201 200 208 209 206 208 196 201 203 208 218 229 223 209 197 195 174
252 247 271 274 251 263 252 247 257 276 274 219 228 255 255 245 265 275 266 215 212 204 199 198 200 196 201 203 200 206 207 205 208 199 207 214 216 231 229 221 201 197 189 196
255 244 255 264 252 268 260 274 259 250 273 284 249 228 250 232 230 247 237 246 237 222 207 199 203 205 200 200 196 203 200 205 213 212 216 203 205 245 221 198 194 193 197 196
255 272 266 245 262 242 270 266 269 277 262 254 260 266 264 257 230 235 256 232 230 224 237 217 210 208 196 189 190 203 200 205 216 220 214 203 207 232 201 190 191 199 200 195
254 247 245 263 261 256 244 251 255 247 248 256 255 249 250 260 265 257 256 251 233 231 225 246 222 207 181 181 194 201 203 209 223 222 207 201 224 237 206 201 201 201 198 196
273 245 220 217 220 253 231 225 246 255 249 260 255 252 250 240 244 243 256 325 317 321 309 282 25 147 143 91 240 242 213 209 216 207 201 213 220 220 211 207 206 205 200 202
265 277 287 255 199 217 256 223 237 256 272 279 285 285 251 228 203 211 198 270 274 278 280 278 270 185 198 200 213 232 212 212 214 205 207 217 218 214 214 212 209 198 187 201
237 264 277 289 237 228 221 255 241 224 243 260 274 281 286 243 201 185 204 233 224 229 254 263 310 190 206 205 188 202 215 215 206 206 217 223 211 211 217 214 204 183 191 205
257 251 260 280 271 246 247 240 250 277 273 256 248 265 316 33 114 207 204 214 214 209 228 237 213 165 176 184 195 206 206 203 206 208 219 225 226 216 215 212 199 190 195 202
275 282 250 258 267 274 231 265 249 235 261 271 281 282 308 341 311 177 209 225 206 215 227 285 176 162 170 175 185 200 210 198 205 215 225 235 233 223 213 212 204 191 200 204
347 292 260 254 266 270 269 239 235 246 247 249 266 273 276 337 308 266 248 266 202 198 205 218 187 195 187 209 207 203 223 228 210 210 230 233 231 230 211 205 203 197 204 205
356 267 275 263 254 274 269 260 238 240 249 258 256 278 289 292 278 273 204 237 259 228 215 207 206 199 203 201 210 211 217 217 218 212 219 226 225 224 217 203 199 203 206 202
247 264 272 269 272 282 284 280 272 255 250 239 247 248 249 255 268 277 235 245 245 274 247 249 218 210 199 200 204 207 220 226 211 216 218 220 230 226 216 202 201 203 205 205
327 263 246 262 268 270 271 269 270 270 271 273 253 255 259 255 274 281 280 218 204 237 248 247 251 262 212 200 204 207 211 216 212 214 219 224 227 219 211 205 205 202 203 208
302 310 306 278 281 271 258 258 265 271 271 269 264 270 267 270 252 247 258 264 264 230 225 245 258 265 151 163 201 209 208 207 210 210 209 213 212 208 208 207 202 200 202 214
276 281 282 283 285 264 274 273 270 262 267 272 275 278 275 278 279 278 280 274 271 241 244 228 220 186 216 239 286 275 210 205 203 205 207 212 210 208 205 205 205 204 211 215
257 257 266 262 263 275 267 271 275 278 281 281 280 280 279 278 286 272 278 277 272 179 162 93 109 172 210 227 253 260 235 205 199 201 209 212 208 210 209 207 206 210 210 201
230 228 241 242 248 256 268 265 264 280 280 315 296 280 281 277 271 271 2 34 86 96 112 112 121 126 225 196 213 228 226 205 201 200 198 206 214 215 213 210 209 210 200 195
281 273 230 257 259 258 283 304 294 279 311 330 343 308 290 241 256 146 120 96 92 100 104 104 113 135 171 202 198 196 205 204 207 197 200 210 214 213 214 210 208 207 190 183
270 268 269 235 225 271 342 348 347 335 322 337 339 339 304 280 120 133 129 133 130 129 114 119 133 158 173 186 202 188 198 202 200 206 211 210 215 209 207 207 202 190 177 167
286 320 301 285 291 314 313 316 302 299 298 330 337 338 339 259 175 158 152 154 149 130 128 146 152 188 187 196 199 185 192 205 204 209 207 209 212 210 209 207 187 176 166 167
289 297 288 306 309 322 322 353 10 352 326 298 315 332 339 336 182 137 130 138 136 99 162 185 188 212 232 217 203 207 207 208 211 208 212 213 209 202 199 194 186 173 168 174
286 301 293 289 290 297 297 305 324 332 340 320 284 301 330 323 330 44 65 70 59 1 312 250 250 250 230 244 222 215 223 219 219 213 208 201 199 196 185 179 172 167 173 182
270 272 270 276 297 303 299 302 297 286 297 308 310 297 286 325 316 348 8 11 351 314 265 240 242 237 229 244 223 226 226 226 215 206 199 202 195 183 172 163 162 175 179 187